Zurück zum Katalog

STARLINK-38147

AktivKommunikationSSO
NORAD 100306·PAYLOAD·🇺🇸 United States

Gestartet Aug 12, 2026 von Vandenberg Space Force Base

Loading…

Nächste Überflüge (nächste 24 Stunden)

TLE

AktuellSource: Space-Track

Epoche: Sep 14, 2026, 14:30 UTC

1 A0306U 26184F   26257.60480172  .00010573  00000-0  32944-3 0  9991
2 A0306  97.2831 122.7588 0001591  93.7855 266.3570 15.33436933  6451

Verfolge STARLINK-38147 in Echtzeit mit AllMySat

Download on the App Store